Location: Unspecified
(49.0500°N, 0.0000°E)
Time: 02:50:30
(UTC+00:00)

OTV 5 (USA 277) - Pass Details

Date: 19 June 2019
Orbit: 299 x 335 km, 54.5° (Epoch: 13 July)

Event Time Altitude Azimuth Distance (km) Brightness Sun altitude
Exits shadow 00:31:25 - 273° (W) 1,704 ? -17.2°
Reaches altitude 10° 00:32:32 10° 280° (W) 1,270 ? -17.2°
Maximum altitude 00:35:07 32° 346° (NNW) 605 ? -17.1°
Drops below altitude 10° 00:37:41 10° 53° (NE) 1,262 ? -17.1°
Enters shadow 01:41:17 -53° 269° (W) 10,602 ? -14.2°
